Location: Saint-Hippolyte
(43.6394°N, 4.7559°E)
Time: 14:47:48
(UTC+00:00)

Cosmos 1244 Rocket - Pass Details

Date: 24 October 2020
Orbit: 954 x 997 km, 82.9° (Epoch: 23 November)

Event Time Altitude Azimuth Distance (km) Brightness Sun altitude
Rises 17:58:38 0° 353° (N) 3,653 7.6 -14.3°
Reaches altitude 10° 18:01:08 10° 355° (N) 2,707 6.9 -14.8°
Maximum altitude 18:07:21 78° 82° (E) 995 4.4 -15.9°
Drops below altitude 10° 18:13:35 10° 168° (SSE) 2,718 6.7 -17.1°
Sets 18:16:06 0° 170° (S) 3,668 7.4 -17.5°
